Change the Weather History Date:

Saturday, October 15, 2011

  Actual Average Record
Temperature  
Mean Temperature 38 °F -  
Max Temperature 42 °F 49 °F 64 °F (1996)
Min Temperature 35 °F 33 °F 19 °F (2006)
Degree Days  
Heating Degree Days 26    
Moisture  
Dew Point 31 °F    
Average Humidity 69    
Maximum Humidity 81    
Minimum Humidity 57    
Precipitation  
Precipitation 0.00 in - - ()
Sea Level Pressure  
Sea Level Pressure 29.68 in    
Wind  
Wind Speed 6 mph (West)    
Max Wind Speed 12 mph    
Max Gust Speed 22 mph    
Visibility 10 miles    
Events Rain    
Averages and records for this station are not official NWS values.
T = Trace of Precipitation, MM = Missing Value Source: NWS Daily Summary

Daily Weather History Graph

Daily Weather History Graph

Search for Another Location

Airport or City:

Trip Planner

Search our weather history database for the weather conditions in past years. The results will help you decide how hot, cold, wet, or windy it might be!

Date:

Astronomy

Oct. 15, 2011 Rise Set
Actual Time 7:29 AM CDT 6:21 PM CDT
Civil Twilight 6:57 AM CDT 6:52 PM CDT
Nautical Twilight 6:21 AM CDT 7:28 PM CDT
Astronomical Twilight 5:45 AM CDT 8:05 PM CDT
Moon 7:58 PM CDT (10/15) 11:13 AM CDT (10/15)
Length of Visible Light 11h 55m
Length of Day
10h 52m
Waning Gibbous, 89% of the Moon is Illuminated
Oct 15
Waning Gibbous
Oct 19
Last Quarter
Oct 26
New
Nov 2
First Quarter
Nov 10
Full

Hourly Weather History & Observations

Time (CDT) Temp. Windchill Dew Point Humidity Pressure Visibility Wind Dir Wind Speed Gust Speed Precip Events Conditions
12:12 AM 42.8 °F 40.1 °F 32.0 °F 66% 29.64 in 10.0 mi NW 4.6 mph - N/A Rain Rain
12:32 AM 41.0 °F 35.8 °F 33.8 °F 76% 29.64 in 10.0 mi NW 8.1 mph - N/A   Scattered Clouds
12:52 AM 41.0 °F 38.0 °F 33.8 °F 76% 29.65 in 10.0 mi WNW 4.6 mph - N/A   Scattered Clouds
1:12 AM 41.0 °F 39.0 °F 33.8 °F 76% 29.65 in 10.0 mi NW 3.5 mph - N/A   Scattered Clouds
1:32 AM 41.0 °F 38.0 °F 33.8 °F 76% 29.65 in 10.0 mi West 4.6 mph - N/A   Scattered Clouds
1:52 AM 41.0 °F 37.1 °F 33.8 °F 76% 29.66 in 10.0 mi NW 5.8 mph - N/A   Scattered Clouds
2:12 AM 39.2 °F 33.6 °F 33.8 °F 81% 29.66 in 10.0 mi West 8.1 mph - N/A   Scattered Clouds
2:32 AM 39.2 °F 32.0 °F 33.8 °F 81% 29.67 in 10.0 mi West 11.5 mph 16.1 mph N/A   Scattered Clouds
2:51 AM 39.2 °F 35.0 °F 32.0 °F 75% 29.67 in 10.0 mi WSW 5.8 mph - N/A   Scattered Clouds
3:12 AM 37.4 °F 30.3 °F 32.0 °F 81% 29.67 in 10.0 mi West 10.4 mph 16.1 mph N/A   Drizzle
3:32 AM 37.4 °F 34.9 °F 32.0 °F 81% 29.67 in 10.0 mi WNW 3.5 mph - N/A   Clear
3:52 AM 37.4 °F 32.8 °F 30.2 °F 75% 29.67 in 10.0 mi West 5.8 mph - N/A   Scattered Clouds
4:12 AM 37.4 °F 33.8 °F 32.0 °F 81% 29.68 in 10.0 mi NW 4.6 mph - N/A Rain Light Rain
4:32 AM 37.4 °F 34.9 °F 32.0 °F 81% 29.68 in 10.0 mi West 3.5 mph - N/A   Scattered Clouds
4:52 AM 37.4 °F 32.8 °F 30.2 °F 75% 29.68 in 10.0 mi West 5.8 mph - N/A   Mostly Cloudy
5:12 AM 37.4 °F 30.8 °F 30.2 °F 75% 29.69 in 10.0 mi West 9.2 mph - N/A   Scattered Clouds
5:32 AM 35.6 °F 32.8 °F 30.2 °F 81% 29.69 in 10.0 mi West 3.5 mph - N/A   Clear
5:52 AM 35.6 °F 29.2 °F 30.2 °F 81% 29.69 in 10.0 mi West 8.1 mph - N/A Rain Light Rain
6:11 AM 35.6 °F 31.7 °F 30.2 °F 81% 29.69 in 10.0 mi West 4.6 mph - N/A Rain Light Rain
6:32 AM 35.6 °F 31.7 °F 30.2 °F 81% 29.69 in 10.0 mi West 4.6 mph - N/A   Scattered Clouds
6:52 AM 35.6 °F - 30.2 °F 81% 29.69 in 10.0 mi Calm Calm - N/A   Scattered Clouds
7:12 AM 35.6 °F 32.8 °F 30.2 °F 81% 29.69 in 10.0 mi WNW 3.5 mph - N/A   Scattered Clouds
7:32 AM 35.6 °F 28.6 °F 30.2 °F 81% 29.69 in 10.0 mi West 9.2 mph - N/A   Scattered Clouds
8:12 AM 35.6 °F 29.9 °F 30.2 °F 81% 29.69 in 10.0 mi West 6.9 mph - N/A   Scattered Clouds
8:31 AM 37.4 °F 33.8 °F 30.2 °F 75% 29.69 in 10.0 mi West 4.6 mph - N/A   Scattered Clouds
8:52 AM 37.4 °F 33.8 °F 30.2 °F 75% 29.69 in 10.0 mi West 4.6 mph - N/A   Mostly Cloudy
9:11 AM 37.4 °F 32.1 °F 30.2 °F 75% 29.69 in 10.0 mi West 6.9 mph - N/A   Mostly Cloudy
9:32 AM 39.2 °F 33.6 °F 30.2 °F 70% 29.69 in 10.0 mi WSW 8.1 mph - N/A   Scattered Clouds
9:51 AM 39.2 °F 33.0 °F 30.2 °F 70% 29.68 in 10.0 mi West 9.2 mph - N/A   Mostly Cloudy
10:12 AM 41.0 °F 35.8 °F 28.4 °F 61% 29.68 in 10.0 mi West 8.1 mph 18.4 mph N/A   Mostly Cloudy
10:31 AM 42.8 °F 38.0 °F 28.4 °F 57% 29.68 in 10.0 mi NW 8.1 mph - N/A   Mostly Cloudy
10:52 AM 42.8 °F 40.1 °F 28.4 °F 57% 29.68 in 10.0 mi West 4.6 mph - N/A   Mostly Cloudy
11:11 AM 42.8 °F 38.6 °F 28.4 °F 57% 29.68 in 10.0 mi WNW 6.9 mph - N/A   Mostly Cloudy
11:32 AM 42.8 °F 39.3 °F 28.4 °F 57% 29.68 in 10.0 mi West 5.8 mph - N/A   Mostly Cloudy
11:51 AM 42.8 °F 40.1 °F 30.2 °F 61% 29.68 in 10.0 mi West 4.6 mph - N/A   Mostly Cloudy
12:12 PM 42.8 °F 37.5 °F 30.2 °F 61% 29.68 in 10.0 mi West 9.2 mph 16.1 mph N/A   Mostly Cloudy
12:31 PM 42.8 °F 37.5 °F 30.2 °F 61% 29.68 in 10.0 mi West 9.2 mph 17.3 mph N/A   Mostly Cloudy
12:51 PM 42.8 °F 36.6 °F 30.2 °F 61% 29.69 in 10.0 mi WSW 11.5 mph 17.3 mph N/A   Mostly Cloudy
1:12 PM 42.8 °F 37.5 °F 30.2 °F 61% 29.69 in 10.0 mi West 9.2 mph - N/A   Mostly Cloudy
1:32 PM 42.8 °F 38.0 °F 30.2 °F 61% 29.69 in 10.0 mi West 8.1 mph - N/A   Mostly Cloudy
1:51 PM 42.8 °F 41.1 °F 30.2 °F 61% 29.68 in 10.0 mi West 3.5 mph - N/A   Mostly Cloudy
2:12 PM 42.8 °F 36.6 °F 30.2 °F 61% 29.69 in 10.0 mi West 11.5 mph 20.7 mph N/A   Mostly Cloudy
2:32 PM 42.8 °F 37.0 °F 30.2 °F 61% 29.69 in 10.0 mi WSW 10.4 mph 18.4 mph N/A   Mostly Cloudy
3:12 PM 42.8 °F 38.6 °F 30.2 °F 61% 29.70 in 10.0 mi West 6.9 mph 20.7 mph N/A   Mostly Cloudy
3:32 PM 42.8 °F 38.0 °F 30.2 °F 61% 29.70 in 10.0 mi West 8.1 mph 16.1 mph N/A   Mostly Cloudy
3:52 PM 42.8 °F 37.5 °F 30.2 °F 61% 29.69 in 10.0 mi WNW 9.2 mph 19.6 mph N/A   Mostly Cloudy
4:12 PM 42.8 °F 37.0 °F 30.2 °F 61% 29.69 in 10.0 mi West 10.4 mph 21.9 mph N/A   Mostly Cloudy
4:32 PM 42.8 °F 37.0 °F 30.2 °F 61% 29.69 in 10.0 mi West 10.4 mph 16.1 mph N/A   Mostly Cloudy
4:51 PM 42.8 °F 41.1 °F 30.2 °F 61% 29.70 in 10.0 mi West 3.5 mph - N/A   Mostly Cloudy
5:12 PM 42.8 °F 38.6 °F 30.2 °F 61% 29.70 in 10.0 mi West 6.9 mph - N/A   Mostly Cloudy
5:31 PM 42.8 °F 38.6 °F 30.2 °F 61% 29.69 in 10.0 mi West 6.9 mph 19.6 mph N/A   Mostly Cloudy
5:52 PM 42.8 °F 40.1 °F 30.2 °F 61% 29.69 in 10.0 mi West 4.6 mph - N/A   Scattered Clouds
6:12 PM 42.8 °F 38.6 °F 30.2 °F 61% 29.69 in 10.0 mi West 6.9 mph - N/A   Scattered Clouds
6:32 PM 42.8 °F - 30.2 °F 61% 29.69 in 10.0 mi Calm Calm - N/A   Scattered Clouds
6:52 PM 42.8 °F - 30.2 °F 61% 29.70 in 10.0 mi Calm Calm - N/A   Scattered Clouds
7:12 PM 42.8 °F - 30.2 °F 61% 29.70 in 10.0 mi Calm Calm - N/A   Scattered Clouds
7:31 PM 42.8 °F - 30.2 °F 61% 29.69 in 10.0 mi Calm Calm - N/A   Scattered Clouds
7:52 PM 42.8 °F 41.1 °F 30.2 °F 61% 29.69 in 10.0 mi WSW 3.5 mph - N/A   Scattered Clouds
8:11 PM 42.8 °F - 30.2 °F 61% 29.68 in 10.0 mi Calm Calm - N/A   Scattered Clouds
8:32 PM 41.0 °F 39.0 °F 30.2 °F 65% 29.68 in 10.0 mi WSW 3.5 mph - N/A   Scattered Clouds
9:11 PM 41.0 °F 39.0 °F 30.2 °F 65% 29.68 in 10.0 mi WSW 3.5 mph - N/A   Scattered Clouds
9:51 PM 41.0 °F 37.1 °F 30.2 °F 65% 29.68 in 10.0 mi West 5.8 mph - N/A   Clear
10:12 PM 39.2 °F 35.0 °F 30.2 °F 70% 29.68 in 10.0 mi West 5.8 mph - N/A   Scattered Clouds
10:31 PM 39.2 °F 35.9 °F 30.2 °F 70% 29.68 in 10.0 mi WSW 4.6 mph - N/A   Scattered Clouds
11:11 PM 39.2 °F 35.0 °F 30.2 °F 70% 29.67 in 10.0 mi WSW 5.8 mph - N/A   Clear
11:31 PM 39.2 °F 35.0 °F 30.2 °F 70% 29.67 in 10.0 mi WSW 5.8 mph - N/A   Clear
11:51 PM 39.2 °F 37.0 °F 30.2 °F 70% 29.67 in 10.0 mi WSW 3.5 mph - N/A   Clear